Location: Chenereilles
(45.4866°N, 4.0790°E)
Time: 02:31:05
(UTC+00:00)

CZ-4B R/B - Pass Details

Date: 12 November 2019
Orbit: 394 x 468 km, 97.6° (Epoch: 07 December)

Event Time Altitude Azimuth Distance (km) Brightness Sun altitude
Rises 16:40:13 0° 359° (N) 2,404 4.9 -4.6°
Reaches altitude 10° 16:42:28 10° 345° (NNW) 1,547 4.1 -4.9°
Maximum altitude 16:45:07 23° 291° (WNW) 993 3.8 -5.4°
Drops below altitude 10° 16:47:50 10° 238° (WSW) 1,569 5.8 -5.8°
Sets 16:50:08 0° 223° (SW) 2,449 6.4 -6.2°
